Simultaneous Nadir Overpasses (SNOs) Predictions

Prediction of SNOs between AQUA and GOES-15 Satellite Orbit:

Table of predicted SNOs for the next 14.0 days since TLE Epoch: 1/23/2016
Index Date Time (AQUA) AQUA Lat,Lon GOES-15 Lat,Lon Distance(km) Time Diff (sec)
1 01/23/2016 22:35:06 0.10,-134.90 0.08,-135.04 16.13 80
2 01/25/2016 22:22:56 0.74,-131.94 0.08,-135.10 358.44 80
3 01/26/2016 10:44:11 0.35,-137.10 -0.08,-135.17 220.16 80
4 01/28/2016 10:32:00 -0.31,-134.15 -0.08,-135.22 121.85 80
5 01/28/2016 22:53:24 -0.79,-139.34 0.08,-135.17 473.35 80
6 01/30/2016 10:19:49 -0.97,-131.20 -0.08,-135.27 463.47 80
7 01/30/2016 22:41:12 -0.19,-136.37 0.08,-135.22 131.84 80
8 02/01/2016 22:29:01 0.49,-133.42 0.07,-135.26 209.18 80
9 02/02/2016 10:50:16 0.65,-138.57 -0.07,-135.33 369.73 80
10 02/04/2016 10:38:04 0.02,-135.61 -0.07,-135.36 29.71 80




NCC Satellite Simultaneous Nadir Overpasses (SNOs) Prediction Service
